Location: ??
(35.5653°N, 139.6194°E)
Time: 01:59:37
(UTC+00:00)

Cosmos 2233 Rocket - Pass Details

Date: 20 November 2019
Orbit: 953 x 990 km, 82.9° (Epoch: 08 December)

Event Time Altitude Azimuth Distance (km) Brightness Sun altitude
Rises 20:33:46 0° 197° (SSW) 3,662 7.0 -10.1°
Reaches altitude 10° 20:36:19 10° 201° (SSW) 2,723 6.3 -9.6°
Maximum altitude 20:42:26 57° 279° (W) 1,154 4.1 -8.4°
Drops below altitude 10° 20:48:39 10° 357° (N) 2,755 6.2 -7.2°
Sets 20:51:15 0° 2° (N) 3,709 6.9 -6.7°
